ALESUND/VIGRA current weather conditions

sailwx.info

Wind from 320 at 8 knots

Air temperature 6.0° C
Visibility: greater than 5.4 NM
Dewpoint -2.0° C

Last reported at 2017-Apr-26 10:20 UTC.
Time now 2017-Apr-26 11:59 UTC

Location: N 62°34' E 006°07'.
View on Google Maps.

See reports from other nearby stations

  
Tides and Currents Weather Stations Pressure Air Temp Water Temp Dewpoint Dewpoint Depression Visibility Wind Speed Wind Dir Waves Ship Positions
date/time (UTC)wind fromknots sea level pressurealtimeterstation pressurevisibilityair tempwater tempwave heightnotes
2017-Apr-26 10:20 320 8 5.4 6.0
2017-Apr-26 09:50 320 9 5.4 6.0
2017-Apr-26 09:20 320 11 5.4 5.0
2017-Apr-26 08:50 330 9 5.4 5.0
2017-Apr-26 08:20 360 8 5.4 4.0 Showers in the vicinity.
2017-Apr-26 07:50 360 12 5.4 4.0
2017-Apr-26 07:20 360 12 5.4 4.0
2017-Apr-26 06:50 360 13 5.4 4.0 Showers in the vicinity.
2017-Apr-26 06:20 010 13 5.4 3.0 Showers in the vicinity.
2017-Apr-26 05:50 020 14 5.4 3.0 Showers in the vicinity.
2017-Apr-26 05:20 020 15 5.4 3.0 Showers in the vicinity.
2017-Apr-26 04:50 360 4 5.4 2.0 Showers in the vicinity.
2017-Apr-26 04:20 030 7 5.4 1.0 Light rain.
2017-Apr-26 03:50 010 9 5.4 3.0 Light rain.
2017-Apr-26 03:20 030 8 5.4 2.0 Light rain.
2017-Apr-26 02:50 020 6 5.4 2.0
2017-Apr-26 02:20 010 6 5.4 2.0
2017-Apr-26 01:50 020 6 5.4 2.0
2017-Apr-26 01:20 350 11 2.6 2.0 Light rain snow.
2017-Apr-26 00:50 330 8 5.4 3.0
2017-Apr-26 00:20 5.4 2.0
2017-Apr-25 23:50 360 8 5.4 2.0
2017-Apr-25 23:20 330 7 5.4 2.0
2017-Apr-25 22:50 350 4 5.4 2.0
2017-Apr-25 22:20 350 2 5.4 2.0
2017-Apr-25 21:50 040 12 5.4 3.0 Light rain.
2017-Apr-25 21:20 040 14 5.4 4.0
2017-Apr-25 20:50 340 9 5.4 4.0 Rain.
2017-Apr-25 20:20 340 7 5.4 4.0
2017-Apr-25 19:50 010 11 5.4 4.0
2017-Apr-25 19:20 010 11 5.4 4.0
2017-Apr-25 18:50 360 12 5.4 4.0
2017-Apr-25 18:20 360 12 5.4 5.0
2017-Apr-25 17:50 010 9 5.4 5.0
2017-Apr-25 17:20 010 14 5.4 5.0
2017-Apr-25 16:50 360 17 5.4 6.0
2017-Apr-25 16:20 360 13 5.4 6.0
2017-Apr-25 15:50 350 13 5.4 6.0
2017-Apr-25 15:20 360 13 5.4 5.0
2017-Apr-25 14:50 360 15 5.4 7.0
2017-Apr-25 14:20 020 14 5.4 7.0
2017-Apr-25 13:50 010 13 5.4 6.0 Showers in the vicinity.
2017-Apr-25 13:20 010 14 5.4 7.0 Showers in the vicinity.
2017-Apr-25 12:50 020 13 5.4 7.0 Showers in the vicinity.
2017-Apr-25 12:20 040 8 5.4 4.0 Showers in the vicinity.
2017-Apr-25 11:50 010 13 5.4 6.0 Showers in the vicinity.
2017-Apr-25 11:20 010 13 5.4 6.0 Showers in the vicinity.
2017-Apr-25 10:50 050 7 5.4 5.0 Showers in the vicinity.
2017-Apr-25 10:20 030 17 5.4 5.0 Showers in the vicinity.
2017-Apr-25 09:20 060 9 gusting 20 5.4 4.0 Showers in the vicinity.
2017-Apr-25 08:50 020 6 5.4 6.0 Showers in the vicinity.
2017-Apr-25 08:20 040 13 5.4 6.0 Showers in the vicinity.
2017-Apr-25 07:50 050 11 5.4 6.0 Showers in the vicinity.
2017-Apr-25 07:20 040 11 5.4 6.0 Showers in the vicinity.
2017-Apr-25 06:50 040 7 5.4 6.0 Showers in the vicinity.
2017-Apr-25 06:20 030 9 5.4 4.0
2017-Apr-25 05:50 040 9 5.4 4.0 Showers in the vicinity.
2017-Apr-25 05:20 040 9 5.4 3.0 Light rain.
2017-Apr-25 04:50 040 7 5.4 3.0 Showers in the vicinity.
2017-Apr-25 04:20 030 9 5.4 3.0
2017-Apr-25 03:50 010 13 5.4 2.0 Showers in the vicinity.
2017-Apr-25 03:20 040 9 5.4 2.0
2017-Apr-25 02:50 050 11 5.4 2.0
2017-Apr-25 02:20 060 11 5.4 3.0
2017-Apr-25 01:50 060 13 5.4 3.0
2017-Apr-25 01:20 060 12 5.4 3.0
2017-Apr-25 00:50 040 12 5.4 3.0
2017-Apr-25 00:20 040 11 5.4 3.0
2017-Apr-24 23:50 040 13 5.4 3.0
2017-Apr-24 23:20 040 13 5.4 3.0
2017-Apr-24 22:50 050 13 5.4 3.0
2017-Apr-24 22:20 080 9 5.4 3.0
2017-Apr-24 21:50 070 9 5.4 3.0
2017-Apr-24 21:20 070 11 5.4 3.0
2017-Apr-24 20:50 060 9 5.4 3.0
2017-Apr-24 20:20 060 8 5.4 3.0
2017-Apr-24 19:50 070 11 5.4 3.0
2017-Apr-24 19:20 030 7 5.4 3.0
2017-Apr-24 18:50 060 11 5.4 3.0 Showers in the vicinity.
2017-Apr-24 18:20 060 8 5.4 4.0 Showers in the vicinity.
2017-Apr-24 17:50 050 7 5.4 4.0
2017-Apr-24 17:20 350 6 5.4 4.0
2017-Apr-24 16:50 350 5 5.4 5.0
2017-Apr-24 16:20 350 5 5.4 5.0
2017-Apr-24 15:50 340 5 5.4 5.0
2017-Apr-24 15:20 340 5 5.4 5.0
2017-Apr-24 14:50 360 7 5.4 5.0
2017-Apr-24 14:20 350 6 5.4 5.0
2017-Apr-24 13:50 360 9 5.4 5.0
2017-Apr-24 13:20 360 6 5.4 5.0
2017-Apr-24 12:50 350 6 5.4 5.0
2017-Apr-24 12:20 360 6 5.4 4.0
2017-Apr-24 11:50 360 6 5.4 4.0 Showers in the vicinity.
2017-Apr-24 11:20 010 6 5.4 3.0